When you browse on this site, cookies collect data to enhance your experience and personalize the content and advertising you see.
Visit our Privacy Policy to learn more. By continuing to use the site, you agree to this use of cookies and data.
  • en Suisse
  • Liste des pays
  • À 7 jours
  • Température de l'eau
  • Carte météo
  • Widgets météo
  • user-avatar
    Se connecter

    Météo par heure à Sidorovskie

    Ce jour, 25 Août, Dimanche

    Heure Température Précipitation Vent Pression Humidité
    00:00 +14°C° 0 mm 1 m/s 765 mmHg 85%
    01:00 +13°C° 0 mm 1 m/s 765 mmHg 87%
    02:00 +12°C° 0 mm 1 m/s 766 mmHg 89%
    03:00 +12°C° 0 mm 1 m/s 766 mmHg 90%
    04:00 +10°C° 0 mm 0 m/s 766 mmHg 91%
    05:00 +10°C° 0 mm 0 m/s 766 mmHg 92%
    06:00 +12°C° 0 mm 0 m/s 766 mmHg 85%
    07:00 +14°C° 0 mm 0 m/s 766 mmHg 79%
    08:00 +16°C° 0 mm 0 m/s 767 mmHg 72%
    09:00 +18°C° 0 mm 0 m/s 767 mmHg 66%
    10:00 +19°C° 0 mm 0 m/s 767 mmHg 61%
    11:00 +20°C° 0 mm 0 m/s 766 mmHg 56%
    12:00 +21°C° 0 mm 0 m/s 766 mmHg 54%
    13:00 +21°C° 0 mm 0 m/s 766 mmHg 52%
    14:00 +22°C° 0 mm 0 m/s 766 mmHg 50%
    15:00 +21°C° 0 mm 0 m/s 766 mmHg 53%
    16:00 +23°C° 0 mm 1 m/s 766 mmHg 55%
    17:00 +22°C° 0 mm 1 m/s 765 mmHg 58%
    18:00 +21°C° 0 mm 1 m/s 766 mmHg 63%
    19:00 +19°C° 0 mm 1 m/s 766 mmHg 69%
    20:00 +16°C° 0 mm 1 m/s 766 mmHg 75%
    21:00 +15°C° 0 mm 1 m/s 766 mmHg 76%
    22:00 +15°C° 0 mm 1 m/s 766 mmHg 78%
    23:00 +14°C° 0 mm 1 m/s 766 mmHg 80%

    Demain, 26 Août, Lundi

    Heure Température Précipitation Vent Pression Humidité
    00:00 +14°C° 0 mm 1 m/s 766 mmHg 82%
    01:00 +13°C° 0 mm 1 m/s 766 mmHg 84%
    02:00 +13°C° 0 mm 1 m/s 766 mmHg 86%
    03:00 +12°C° 0 mm 1 m/s 766 mmHg 88%
    04:00 +12°C° 0 mm 2 m/s 765 mmHg 89%
    05:00 +12°C° 0 mm 2 m/s 765 mmHg 90%
    06:00 +14°C° 0 mm 2 m/s 765 mmHg 85%
    07:00 +16°C° 0 mm 2 m/s 765 mmHg 80%
    08:00 +18°C° 0 mm 2 m/s 765 mmHg 74%
    09:00 +19°C° 0 mm 2 m/s 765 mmHg 69%
    10:00 +21°C° 0 mm 2 m/s 764 mmHg 63%
    11:00 +24°C° 0 mm 2 m/s 764 mmHg 57%
    12:00 +25°C° 0 mm 3 m/s 764 mmHg 56%
    13:00 +25°C° 0 mm 3 m/s 763 mmHg 55%
    14:00 +26°C° 0 mm 3 m/s 763 mmHg 54%
    15:00 +25°C° 0 mm 3 m/s 763 mmHg 60%
    16:00 +25°C° 0 mm 2 m/s 763 mmHg 65%
    17:00 +25°C° 0 mm 2 m/s 762 mmHg 70%
    18:00 +23°C° 0 mm 2 m/s 762 mmHg 74%
    19:00 +21°C° 0 mm 2 m/s 762 mmHg 78%
    20:00 +19°C° 0 mm 2 m/s 762 mmHg 82%
    21:00 +18°C° 0 mm 2 m/s 762 mmHg 83%
    22:00 +17°C° 0 mm 2 m/s 762 mmHg 83%
    23:00 +17°C° 0 mm 2 m/s 763 mmHg 84%

    Après-demain, 27 Août, Mardi

    Heure Température Précipitation Vent Pression Humidité
    00:00 +16°C° 0 mm 2 m/s 763 mmHg 87%
    01:00 +15°C° 0 mm 2 m/s 763 mmHg 90%
    02:00 +15°C° 0 mm 2 m/s 763 mmHg 93%
    03:00 +15°C° 0 mm 2 m/s 763 mmHg 94%
    04:00 +14°C° 0 mm 2 m/s 763 mmHg 95%
    05:00 +14°C° 0 mm 2 m/s 763 mmHg 97%
    06:00 +15°C° 0 mm 2 m/s 763 mmHg 92%
    07:00 +17°C° 0 mm 2 m/s 763 mmHg 87%
    08:00 +18°C° 0 mm 2 m/s 764 mmHg 83%
    09:00 +20°C° 0 mm 2 m/s 764 mmHg 76%
    10:00 +21°C° 0 mm 2 m/s 764 mmHg 70%
    11:00 +24°C° 0 mm 2 m/s 764 mmHg 63%
    12:00 +24°C° 0 mm 3 m/s 764 mmHg 60%
    13:00 +25°C° 0 mm 3 m/s 764 mmHg 57%
    14:00 +25°C° 0 mm 3 m/s 764 mmHg 53%
    15:00 +25°C° 0 mm 3 m/s 764 mmHg 55%
    16:00 +24°C° 0 mm 3 m/s 764 mmHg 57%
    17:00 +24°C° 0 mm 2 m/s 763 mmHg 59%
    18:00 +21°C° 0 mm 2 m/s 763 mmHg 64%
    19:00 +19°C° 0 mm 2 m/s 764 mmHg 69%
    20:00 +18°C° 0 mm 1 m/s 764 mmHg 74%
    21:00 +16°C° 0 mm 1 m/s 764 mmHg 76%
    22:00 +15°C° 0 mm 1 m/s 764 mmHg 78%
    23:00 +15°C° 0 mm 1 m/s 765 mmHg 80%

    28 Août, Mercredi

    Heure Température Précipitation Vent Pression Humidité
    00:00 +14°C° 0 mm 1 m/s 765 mmHg 82%
    01:00 +14°C° 0 mm 1 m/s 765 mmHg 83%
    02:00 +13°C° 0 mm 1 m/s 765 mmHg 84%
    03:00 +13°C° 0 mm 1 m/s 765 mmHg 86%
    04:00 +12°C° 0 mm 1 m/s 765 mmHg 88%
    05:00 +12°C° 0 mm 1 m/s 765 mmHg 90%
    06:00 +14°C° 0 mm 1 m/s 766 mmHg 85%
    07:00 +15°C° 0 mm 2 m/s 766 mmHg 79%
    08:00 +17°C° 0 mm 2 m/s 766 mmHg 74%
    09:00 +18°C° 0 mm 2 m/s 766 mmHg 68%
    10:00 +20°C° 0 mm 2 m/s 766 mmHg 62%
    11:00 +21°C° 0 mm 2 m/s 766 mmHg 56%
    12:00 +23°C° 0 mm 2 m/s 766 mmHg 55%
    13:00 +23°C° 0 mm 2 m/s 765 mmHg 53%
    14:00 +24°C° 0 mm 2 m/s 765 mmHg 51%
    15:00 +23°C° 0 mm 2 m/s 765 mmHg 54%
    16:00 +23°C° 0 mm 2 m/s 765 mmHg 57%
    17:00 +21°C° 0 mm 2 m/s 765 mmHg 60%
    18:00 +19°C° 0 mm 2 m/s 765 mmHg 65%
    19:00 +17°C° 0 mm 2 m/s 765 mmHg 71%
    20:00 +15°C° 0 mm 2 m/s 765 mmHg 76%
    21:00 +14°C° 0 mm 2 m/s 765 mmHg 77%
    22:00 +13°C° 0 mm 2 m/s 765 mmHg 78%
    23:00 +13°C° 0 mm 2 m/s 766 mmHg 79%

    29 Août, Jeudi

    Heure Température Précipitation Vent Pression Humidité
    00:00 +12°C° 0 mm 2 m/s 766 mmHg 78%
    01:00 +10°C° 0 mm 2 m/s 766 mmHg 76%
    02:00 +10°C° 0 mm 2 m/s 766 mmHg 75%
    03:00 +9°C° 0 mm 2 m/s 766 mmHg 76%
    04:00 +9°C° 0 mm 2 m/s 766 mmHg 77%
    05:00 +9°C° 0 mm 2 m/s 766 mmHg 77%
    06:00 +10°C° 0 mm 2 m/s 765 mmHg 73%
    07:00 +13°C° 0 mm 2 m/s 765 mmHg 69%
    08:00 +13°C° 0 mm 3 m/s 765 mmHg 66%
    09:00 +16°C° 0 mm 3 m/s 765 mmHg 60%
    10:00 +18°C° 0 mm 3 m/s 765 mmHg 55%
    11:00 +19°C° 0 mm 3 m/s 765 mmHg 50%
    12:00 +20°C° 0 mm 3 m/s 764 mmHg 47%
    13:00 +21°C° 0 mm 3 m/s 764 mmHg 45%
    14:00 +21°C° 0 mm 4 m/s 764 mmHg 42%
    15:00 +21°C° 0 mm 3 m/s 763 mmHg 46%
    16:00 +20°C° 0 mm 3 m/s 763 mmHg 50%
    17:00 +20°C° 0 mm 2 m/s 763 mmHg 54%
    18:00 +18°C° 0 mm 2 m/s 763 mmHg 59%
    19:00 +16°C° 0 mm 2 m/s 763 mmHg 64%
    20:00 +14°C° 0 mm 2 m/s 763 mmHg 69%
    21:00 +13°C° 0 mm 3 m/s 763 mmHg 72%
    22:00 +12°C° 0 mm 3 m/s 763 mmHg 74%
    23:00 +11°C° 0 mm 3 m/s 763 mmHg 77%

    30 Août, Vendredi

    Heure Température Précipitation Vent Pression Humidité
    00:00 +11°C° 0 mm 3 m/s 763 mmHg 80%
    01:00 +11°C° 0 mm 3 m/s 762 mmHg 83%
    02:00 +10°C° 0 mm 3 m/s 762 mmHg 86%
    03:00 +10°C° 0 mm 3 m/s 762 mmHg 87%
    04:00 +10°C° 0 mm 3 m/s 762 mmHg 87%
    05:00 +9°C° 0 mm 3 m/s 762 mmHg 88%
    06:00 +11°C° 0 mm 3 m/s 762 mmHg 82%
    07:00 +12°C° 0 mm 3 m/s 762 mmHg 77%
    08:00 +13°C° 0 mm 3 m/s 762 mmHg 72%
    09:00 +15°C° 0 mm 4 m/s 762 mmHg 68%
    10:00 +18°C° 0 mm 4 m/s 762 mmHg 65%
    11:00 +19°C° 0 mm 4 m/s 762 mmHg 61%
    12:00 +20°C° 0 mm 4 m/s 762 mmHg 60%
    13:00 +21°C° 0 mm 4 m/s 762 mmHg 60%
    14:00 +21°C° 0 mm 4 m/s 761 mmHg 59%
    15:00 +21°C° 0 mm 4 m/s 761 mmHg 62%
    16:00 +20°C° 0 mm 3 m/s 762 mmHg 66%
    17:00 +20°C° 0 mm 3 m/s 762 mmHg 69%
    18:00 +19°C° 0.1 mm 2 m/s 762 mmHg 72%
    19:00 +18°C° 0.1 mm 2 m/s 762 mmHg 76%
    20:00 +17°C° 0.1 mm 2 m/s 762 mmHg 79%
    21:00 +17°C° 0.1 mm 2 m/s 762 mmHg 82%
    22:00 +16°C° 0.1 mm 2 m/s 762 mmHg 85%
    23:00 +15°C° 0.1 mm 1 m/s 763 mmHg 87%
    Voir plus